Weather History for KMCO - January, 2014

Change the Weather History Date:

Saturday, January 18, 2014

  Actual Average Record
Temperature  
Mean Temperature 47 °F 60 °F  
Max Temperature 56 °F 71 °F 86 °F (1943)
Min Temperature 37 °F 49 °F 26 °F (1977)
Degree Days  
Heating Degree Days 18 6  
Month to date heating degree days 119 115  
Since 1 July heating degree days 176 306  
Cooling Degree Days 0 1  
Month to date cooling degree days 40 21  
Year to date cooling degree days 40 21  
Moisture  
Dew Point 24 °F    
Average Humidity 46    
Maximum Humidity 77    
Minimum Humidity 14    
Precipitation  
Precipitation 0.00 in 0.06 in 1.05 in (2004)
Month to date precipitation 1.20 1.35  
Year to date precipitation 1.20 1.35  
Sea Level Pressure  
Sea Level Pressure 30.21 in    
Wind  
Wind Speed 9 mph (WNW)    
Max Wind Speed 22 mph    
Max Gust Speed 25 mph    
Visibility 10 miles    
Events      
T = Trace of Precipitation, MM = Missing Value Source: NWS Daily Summary

Daily Weather History Graph

Daily Weather History Graph

Search for Another Location

Airport or City:

Trip Planner

Search our weather history database for the weather conditions in past years. The results will help you decide how hot, cold, wet, or windy it might be!

Date:

Astronomy

Jan. 18, 2014 Rise Set
Actual Time 7:18 AM EST 5:53 PM EST
Civil Twilight 6:52 AM EST 6:18 PM EST
Nautical Twilight 6:24 AM EST 6:47 PM EST
Astronomical Twilight 5:55 AM EST 7:15 PM EST
Moon 8:17 PM EST (1/18) 8:31 AM EST (1/18)
Length of Visible Light 11h 25m
Length of Day
10h 35m
Waning Gibbous, 94% of the Moon is Illuminated
Jan 18
Waning Gibbous
Jan 24
Last Quarter
Jan 30
New
Feb 6
First Quarter
Feb 14
Full

Hourly Weather History & Observations

Time (EST) Temp. Windchill Dew Point Humidity Pressure Visibility Wind Dir Wind Speed Gust Speed Precip Events Conditions
12:53 AM 54.0 °F - 44.1 °F 69% 30.11 in 10.0 mi SSW 10.4 mph - N/A   Partly Cloudy
1:53 AM 53.1 °F - 44.1 °F 71% 30.12 in 10.0 mi SW 9.2 mph - N/A   Partly Cloudy
2:53 AM 53.1 °F - 45.0 °F 74% 30.13 in 10.0 mi West 5.8 mph - N/A   Scattered Clouds
3:53 AM 54.0 °F - 46.9 °F 77% 30.14 in 10.0 mi West 9.2 mph - N/A   Partly Cloudy
4:53 AM 52.0 °F - 42.1 °F 69% 30.16 in 10.0 mi NW 10.4 mph - N/A   Clear
5:53 AM 50.0 °F - 30.9 °F 48% 30.19 in 10.0 mi NW 8.1 mph - N/A   Clear
6:53 AM 48.0 °F - 30.0 °F 50% 30.21 in 10.0 mi NW 9.2 mph - N/A   Partly Cloudy
7:53 AM 48.0 °F - 28.9 °F 48% 30.23 in 10.0 mi NW 15.0 mph - N/A   Clear
8:53 AM 48.0 °F - 21.9 °F 36% 30.26 in 10.0 mi NNW 19.6 mph - N/A   Clear
9:53 AM 50.0 °F - 16.0 °F 26% 30.28 in 10.0 mi NNW 17.3 mph - N/A   Clear
10:53 AM 52.0 °F - 12.9 °F 21% 30.29 in 10.0 mi NNW 9.2 mph - N/A   Clear
11:53 AM 53.1 °F - 10.0 °F 18% 30.27 in 10.0 mi West 12.7 mph - N/A   Partly Cloudy
12:53 PM 53.1 °F - 9.0 °F 17% 30.24 in 10.0 mi West 12.7 mph 18.4 mph N/A   Partly Cloudy
1:53 PM 55.0 °F - 7.0 °F 15% 30.21 in 10.0 mi WNW 12.7 mph 20.7 mph N/A   Partly Cloudy
2:53 PM 55.9 °F - 10.9 °F 17% 30.19 in 10.0 mi NW 10.4 mph - N/A   Clear
3:53 PM 55.9 °F - 12.0 °F 18% 30.19 in 10.0 mi West 9.2 mph - N/A   Clear
4:53 PM 55.0 °F - 10.9 °F 17% 30.20 in 10.0 mi WNW 5.8 mph - N/A   Clear
5:53 PM 52.0 °F - 14.0 °F 22% 30.20 in 10.0 mi WNW 4.6 mph - N/A   Clear
6:53 PM 46.9 °F - 21.0 °F 36% 30.21 in 10.0 mi West 6.9 mph - N/A   Clear
7:53 PM 46.9 °F - 18.0 °F 32% 30.22 in 10.0 mi West 8.1 mph - N/A   Clear
8:53 PM 45.0 °F 40.1 °F 19.9 °F 37% 30.23 in 10.0 mi West 9.2 mph - N/A   Clear
9:53 PM 44.1 °F 39.5 °F 24.1 °F 45% 30.24 in 10.0 mi West 8.1 mph - N/A   Clear
10:53 PM 42.1 °F 40.2 °F 26.1 °F 53% 30.23 in 10.0 mi West 3.5 mph - N/A   Clear
11:53 PM 37.9 °F - 27.0 °F 65% 30.22 in 10.0 mi Calm Calm - N/A   Clear